[[{"header":{"parameterUnit":"m.s-1","parameterCategory":2,"la1":30.2991,"la2":30.254,"lo1":-89.0895,"lo2":-89.0444,"dy":0.0017,"dx":0.0017,"nx":28,"ny":28,"refTime":"2024-08-18T03:00:00:Z","depth":"0","parameterNumber":2,"parameterNumberName":"U-component_of_CURRENTS"},"data":[0,0,0,0,0,0,0,0,0,0,0,0,0,0,0,0,0,0,0,0,0,0,0,0,0,0,0,0,0,0,0,0,0,0,0,0,0,0,0,0,0,0,0,0,0,0,0,0,0,0,0,0,0,0,0,0,0,0,0.33,0.33,0,0.3293,0.3293,0.3293,0.3263,0.3263,0.3262,0.3262,0.3321,0.3323,0.3325,0,0,0,0,0,0,0,0,0,0,0,0,0,0.3369,0.3367,0.33,0.33,0.33,0.3293,0.3293,0.3293,0.3263,0.3263,0.3262,0.3261,0.332,0.3323,0.3325,0,0,0,0,0,0,0,0,0,0,0,0,0,0.3347,0.3367,0.33,0.3285,0.3284,0.3293,0.3293,0.3293,0.3264,0.3263,0.3262,0.3261,0.3319,0.3323,0.3326,0.3364,0,0,0.3336,0.3337,0,0,0,0,0,0,0,0,0.3348,0.3344,0.3288,0.3286,0.3285,0.3279,0.3339,0.332,0.3264,0.3271,0.3262,0.326,0.3314,0.3318,0.3316,0.3366,0.3369,0.3336,0.3338,0.3339,0.334,0,0,0,0,0,0,0,0.335,0.3345,0.3297,0.3288,0.3286,0.3307,0.3302,0.3335,0.3298,0.327,0.3268,0.3269,0.3314,0.3313,0.3318,0.337,0.3336,0.3339,0.3341,0.3342,0.3557,0.3561,0,0,0,0,0,0,0.3349,0.3346,0.3297,0.3296,0.3316,0.3306,0.33,0.3281,0.3296,0.3297,0.3269,0.3267,0.3308,0.3314,0.332,0.3451,0.3339,0.3342,0.3344,0.3553,0.3558,0.3562,0,0,0,0,0,0,0.335,0.3344,0.3297,0.3323,0.3319,0.3305,0.3284,0.3281,0.3289,0.3295,0.3297,0.328,0.3308,0.3315,0.3385,0.345,0.3344,0.3347,0.3549,0.3555,0.356,0.3659,0,0,0,0,0,0,0.3352,0.3344,0.3338,0.3322,0.3317,0.334,0.3285,0.3282,0.329,0.3288,0.3306,0.3309,0.3308,0.3381,0.3388,0.3452,0.3349,0.3544,0.3552,0.3558,0.3651,0.3667,0.3681,0,0,0,0,0,0.3354,0.335,0.3337,0.3332,0.3306,0.3342,0.3344,0.333,0.3292,0.3326,0.3334,0.3309,0.3431,0.3386,0.3394,0.3461,0.3541,0.3549,0.3558,0.3644,0.3664,0.3681,0,0,0,0,0,0,0.3382,0.3346,0.3332,0.3317,0.3347,0.3338,0.3355,0.3341,0.3368,0.3359,0.3352,0.336,0.3456,0.3447,0.3397,0.3548,0.3485,0.3495,0.3548,0.3567,0.3581,0.3626,0.3352,0,0,0,0,0,0.3385,0.3369,0.3365,0.3364,0.3373,0.3366,0.3375,0.3371,0.3386,0.3394,0.341,0.3437,0.3498,0.3519,0.3571,0.3639,0.3675,0.3692,0.3707,0.3719,0.3765,0.3874,0.3903,0.359,0.359,0.359,0,0,0.3394,0.3376,0.3366,0.337,0.3377,0.3424,0.337,0.3397,0.3446,0.3401,0.3475,0.35,0.3534,0.3627,0.3666,0.3622,0.3828,0.373,0.3741,0.378,0.3886,0.3916,0.3943,0.3596,0.3595,0.3594,0,0,0.3433,0.3395,0.341,0.3435,0.3458,0.3467,0.3482,0.3495,0.3513,0.3589,0.358,0.3652,0.3712,0.3764,0.3793,0.3926,0.3917,0.3928,0.4025,0.4129,0.4156,0.418,0.4257,0.4287,0.3919,0.3919,0.3919,0,0.3461,0.3455,0.3433,0.3473,0.3497,0.3494,0.3547,0.3582,0.3624,0.3663,0.3636,0.3777,0.3795,0.3925,0.3973,0.3964,0.4006,0.3942,0.4149,0.4173,0.4196,0.427,0.4302,0.3925,0.3924,0.3924,0.3923,0,0.3512,0.3524,0.3543,0.3584,0.3623,0.3665,0.3708,0.3761,0.3774,0.3812,0.3942,0.3979,0.4061,0.408,0.4068,0.4238,0.4211,0.4164,0.4096,0.4234,0.4302,0.4334,0.3933,0.3931,0.3929,0.3928,0,0,0.3531,0.3571,0.3578,0.3612,0.3673,0.3711,0.3813,0.3908,0.398,0.4047,0.4161,0.4269,0.4275,0.4313,0.4308,0.4397,0.4581,0.4351,0.4354,0.4419,0.4806,0.4654,0.4673,0.456,0.4567,0.4572,0.4785,0,0.3586,0.3655,0.3672,0.3769,0.3807,0.3851,0.3949,0.4038,0.4112,0.423,0.4299,0.441,0.4365,0.4405,0.4499,0.4575,0.4671,0.4528,0.4673,0.4679,0.452,0.4707,0.4412,0.4566,0.4815,0.482,0.4824,0,0.3618,0.3662,0.3741,0.3837,0.3862,0.3936,0.4072,0.4163,0.4328,0.4388,0.451,0.4559,0.4725,0.4647,0.4872,0.4778,0.4821,0.4863,0.487,0.4725,0.4587,0.4474,0.4614,0.4493,0.4872,0.4868,0.4864,0,0.3597,0.3704,0.376,0.379,0.3911,0.3975,0.4058,0.421,0.4314,0.4496,0.46,0.4761,0.4867,0.4973,0.5046,0.4981,0.5275,0.518,0.5092,0.508,0.486,0.4817,0.4894,0.536,0.536,0.5359,0.5359,0,0.3609,0.3658,0.3755,0.3783,0.3899,0.3975,0.4124,0.4229,0.4412,0.4559,0.4676,0.4819,0.496,0.5113,0.5148,0.5232,0.5358,0.5178,0.5154,0.4882,0.4841,0.4746,0.4686,0.5367,0.5365,0.5364,0.5363,0,0.3567,0.3615,0.37,0.3832,0.388,0.3964,0.416,0.4271,0.4438,0.4642,0.471,0.4934,0.5116,0.523,0.5416,0.5356,0.5276,0.5424,0.5081,0.5012,0.4747,0.4702,0.4649,0.4516,0.5375,0.5373,0.5371,0,0.3541,0.3573,0.3722,0.3784,0.3848,0.3983,0.4081,0.4263,0.4385,0.4694,0.4789,0.5033,0.5155,0.537,0.5314,0.5363,0.5237,0.5108,0.4927,0.4757,0.4692,0.4536,0.4417,0.4684,0.4677,0.4671,0.4666,0,0.3531,0.3584,0.3669,0.3793,0.3896,0.4016,0.4166,0.426,0.4477,0.4623,0.4835,0.496,0.5127,0.5025,0.5063,0.5045,0.4817,0.4984,0.4918,0.4276,0.4007,0.3854,0.4517,0.4613,0.4619,0.4623,0.4625,0.4628,0.3542,0.3605,0.372,0.3822,0.393,0.4027,0.4061,0.4204,0.4346,0.4472,0.4694,0.4736,0.4736,0.4719,0.4687,0.4412,0.4466,0.4227,0.423,0.4123,0.3857,0.4395,0.4378,0.4382,0.4385,0.4388,0.439,0,0.3567,0.3639,0.374,0.3847,0.3895,0.3977,0.4089,0.4055,0.4095,0.4239,0.4317,0.4243,0.411,0.4095,0.3865,0.3684,0.3517,0.3588,0.3319,0.3274,0.3853,0.368,0.3375,0.3375,0.3375,0.3375,0.3375,0.3375,0.3599,0.3683,0.3715,0.3775,0.3816,0.3799,0.3804,0.3751,0.3785,0.3683,0.3592,0.3612,0.3675,0.3529,0.3293,0.3202,0.2994,0.2786,0.2898,0.3308,0.3367,0.3424,0.325,0.286,0.2859,0.2117,0.2112,0.2107]},{"header":{"parameterUnit":"m.s-1","parameterCategory":2,"la1":30.2991,"la2":30.254,"lo1":-89.0895,"lo2":-89.0444,"dy":0.0017,"dx":0.0017,"nx":28,"ny":28,"refTime":"2024-08-18T03:00:00:Z","depth":"0","parameterNumber":3,"parameterNumberName":"V-component_of_CURRENTS"},"data":[0,0,0,0,0,0,0,0,0,0,0,0,0,0,0,0,0,0,0,0,0,0,0,0,0,0,0,0,0,0,0,0,0,0,0,0,0,0,0,0,0,0,0,0,0,0,0,0,0,0,0,0,0,0,0,0,0,0,0.0058,0.0058,0,0.0007,0.0006,0.0006,-0.0028,-0.0028,-0.0029,-0.0029,-0.0077,-0.0078,-0.0079,0,0,0,0,0,0,0,0,0,0,0,0,0,0.0097,0.0096,0.0058,0.0057,0.0057,0.0007,0.0006,0.0006,-0.0028,-0.0028,-0.0029,-0.0029,-0.0076,-0.0077,-0.0079,0,0,0,0,0,0,0,0,0,0,0,0,0,0.0067,0.0096,0.0058,0.0034,0.0031,0.0007,0.0006,0.0006,-0.0028,-0.0028,-0.0029,-0.0029,-0.0076,-0.0077,-0.0079,-0.0081,0,0,-0.0084,-0.0084,0,0,0,0,0,0,0,0,0.0068,0.0065,0.0038,0.0035,0.0032,-0.0005,0.0002,-0.0023,-0.0028,-0.0005,-0.0029,-0.0029,-0.0052,-0.0056,-0.0064,-0.0083,-0.0085,-0.0084,-0.0085,-0.0085,-0.0086,0,0,0,0,0,0,0,0.007,0.0067,0.0038,0.0037,0.0034,0.0015,0.0011,-0.0003,-0.0026,-0.0007,-0.001,-0.0016,-0.0054,-0.0063,-0.0066,-0.0086,-0.0084,-0.0085,-0.0086,-0.0087,-0.0098,-0.0098,0,0,0,0,0,0,0.0078,0.0069,0.004,0.0037,0.005,0.0015,0.001,0.0008,-0.0026,-0.0031,-0.0015,-0.0017,-0.006,-0.0064,-0.0067,-0.0043,-0.0085,-0.0087,-0.0088,-0.0099,-0.0098,-0.0097,0,0,0,0,0,0,0.0079,0.0076,0.0042,0.0051,0.0045,0.0015,0.0012,0.0007,-0.0,-0.0032,-0.0038,-0.0017,-0.006,-0.0065,-0.007,-0.0047,-0.0088,-0.0089,-0.01,-0.0099,-0.0098,-0.0014,0,0,0,0,0,0,0.0081,0.0077,0.008,0.0052,0.0045,0.0039,0.0013,0.0006,-0.0003,-0.0006,-0.0035,-0.004,-0.0061,-0.0068,-0.0072,-0.005,-0.009,-0.01,-0.0099,-0.0098,-0.0017,-0.001,-0.0004,0,0,0,0,0,0.0083,0.009,0.0081,0.0077,0.005,0.004,0.0035,0.0011,-0.0003,0.0002,-0.0018,-0.0039,-0.0063,-0.0068,-0.0073,-0.0051,-0.0101,-0.01,-0.0098,-0.002,-0.0012,-0.0004,0,0,0,0,0,0,0.0104,0.0087,0.0075,0.0076,0.0063,0.0034,0.0035,0.0017,0.0004,0.0003,-0.003,-0.0036,-0.0032,-0.0056,-0.0061,-0.0053,-0.0086,-0.0085,-0.0025,-0.0017,-0.001,0.0022,-0.0092,0,0,0,0,0,0.0111,0.0116,0.0093,0.0095,0.0092,0.0064,0.0057,0.0043,0.0025,0.0019,-0.0004,-0.0024,-0.0031,-0.0035,-0.005,-0.0044,-0.0045,-0.0035,-0.0028,-0.0022,0.0,0.0012,0.0023,-0.0093,-0.0093,-0.0093,0,0,0.0117,0.0111,0.0111,0.01,0.0089,0.0101,0.006,0.0057,0.007,0.0017,0.0026,-0.0002,-0.0025,-0.0017,-0.0018,-0.0032,0.0011,-0.002,-0.0014,0.0004,0.0015,0.0026,0.0037,-0.0092,-0.0092,-0.0092,0,0,0.0143,0.013,0.0147,0.0146,0.0137,0.0126,0.0129,0.0105,0.0099,0.0102,0.007,0.006,0.0041,0.0033,0.0027,0.0062,0.0045,0.005,0.0115,0.0127,0.0137,0.0146,0.0168,0.0178,0.0056,0.0056,0.0056,0,0.0152,0.0173,0.015,0.0171,0.0181,0.0145,0.0173,0.0164,0.0141,0.0149,0.0119,0.0108,0.0072,0.0103,0.0106,0.008,0.0087,0.0088,0.0138,0.0147,0.0155,0.0175,0.0185,0.006,0.006,0.0059,0.0059,0,0.0195,0.0214,0.0226,0.0247,0.0253,0.0271,0.0261,0.0265,0.025,0.024,0.0256,0.0213,0.0212,0.0191,0.0157,0.0196,0.0184,0.0145,0.0124,0.0172,0.0189,0.0199,0.0066,0.0065,0.0063,0.0062,0,0,0.0222,0.0251,0.026,0.0291,0.03,0.0316,0.0343,0.0365,0.0402,0.0369,0.0421,0.0378,0.0352,0.0343,0.03,0.0298,0.034,0.0248,0.0247,0.0283,0.0383,0.0332,0.0337,0.0312,0.0314,0.0315,0.0377,0,0.0269,0.0333,0.0333,0.0401,0.0437,0.0427,0.0465,0.0478,0.048,0.0517,0.0482,0.0507,0.0413,0.0424,0.0406,0.0363,0.0367,0.0328,0.0321,0.0321,0.028,0.0346,0.0324,0.0374,0.0386,0.0387,0.0388,0,0.0324,0.0363,0.0438,0.0501,0.0517,0.0552,0.062,0.0649,0.0679,0.0684,0.0694,0.0666,0.067,0.058,0.0549,0.053,0.0468,0.0423,0.0424,0.0357,0.0287,0.0324,0.0389,0.0208,0.0402,0.0401,0.04,0,0.0378,0.0443,0.0513,0.0533,0.0591,0.063,0.0664,0.0703,0.0759,0.0803,0.086,0.0833,0.0866,0.0777,0.0668,0.0619,0.064,0.0557,0.046,0.0456,0.0427,0.0416,0.0328,0.0544,0.0544,0.0544,0.0543,0,0.0443,0.0497,0.0547,0.0587,0.0689,0.07,0.0807,0.0833,0.0906,0.1018,0.0959,0.1061,0.0918,0.0903,0.0756,0.0657,0.0711,0.0501,0.0476,0.0453,0.0445,0.0275,0.0176,0.0546,0.0545,0.0545,0.0544,0,0.0496,0.0524,0.061,0.0684,0.0718,0.0794,0.0904,0.0984,0.1039,0.1193,0.1226,0.1262,0.1243,0.1086,0.0976,0.0805,0.0584,0.0632,0.0618,0.0589,0.0278,0.0186,0.0092,0.0024,0.0531,0.053,0.0529,0,0.0529,0.058,0.0685,0.0751,0.0791,0.0897,0.0981,0.1049,0.1153,0.1339,0.144,0.1475,0.1549,0.1359,0.1047,0.0804,0.061,0.0598,0.0472,0.0284,0.0164,0.0087,0.0031,0.0478,0.0477,0.0476,0.0475,0,0.06,0.0634,0.0708,0.084,0.094,0.1061,0.119,0.1295,0.1422,0.1588,0.1813,0.1897,0.1712,0.1471,0.1093,0.0893,0.0453,0.0569,0.0388,0.0134,0.0037,-0.0048,0.0417,0.0468,0.0468,0.0469,0.0469,0.047,0.0654,0.0724,0.0821,0.0944,0.1065,0.1224,0.1349,0.1522,0.1745,0.2017,0.2081,0.226,0.1837,0.1326,0.1023,0.0398,0.0409,0.0187,0.0103,0.0053,-0.0059,0.0387,0.0387,0.0387,0.0387,0.0387,0.0388,0,0.0728,0.0803,0.092,0.1077,0.1214,0.1265,0.1494,0.1651,0.1952,0.221,0.2425,0.2322,0.1822,0.1258,0.041,0.0002,-0.0134,-0.0218,-0.0334,-0.036,0.0056,0.0003,-0.0097,-0.0097,-0.0097,-0.0097,-0.0097,-0.0097,0.0775,0.089,0.0942,0.117,0.1289,0.1503,0.1645,0.1911,0.2139,0.246,0.2577,0.2618,0.2142,0.0732,-0.0223,-0.0427,-0.067,-0.0749,-0.0847,-0.0592,-0.0562,-0.0532,-0.0607,-0.0833,-0.0834,-0.123,-0.1234,-0.1237]}],[{"header":{"parameterUnit":"m.s-1","parameterCategory":2,"la1":30.2991,"la2":30.254,"lo1":-89.0895,"lo2":-89.0444,"dy":0.0017,"dx":0.0017,"nx":28,"ny":28,"refTime":"2024-08-18T03:00:00:Z","depth":"2","parameterNumber":2,"parameterNumberName":"U-component_of_CURRENTS"},"data":[0,0,0,0,0,0,0,0,0,0,0,0,0,0,0,0,0,0,0,0,0,0,0,0,0,0,0,0,0,0,0,0,0,0,0,0,0,0,0,0,0,0,0,0,0,0,0,0,0,0,0,0,0,0,0,0,0,0,0.2832,0.2832,0,0.2838,0.2838,0.2838,0.2829,0.2829,0.2829,0.2828,0.2846,0.2847,0.2847,0,0,0,0,0,0,0,0,0,0,0,0,0,0.2832,0.2832,0.2832,0.2833,0.2833,0.2838,0.2838,0.2838,0.2829,0.2829,0.2829,0.2828,0.2846,0.2847,0.2847,0,0,0,0,0,0,0,0,0,0,0,0,0,0.2833,0.2832,0.2832,0.283,0.283,0.2838,0.2838,0.2838,0.2829,0.2829,0.2828,0.2828,0.2846,0.2846,0.2847,0.2858,0,0,0.285,0.2851,0,0,0,0,0,0,0,0,0.2833,0.2833,0.283,0.283,0.283,0.2834,0.2845,0.2846,0.2829,0.2827,0.2828,0.2828,0.2845,0.2845,0.2844,0.2859,0.2859,0.285,0.2851,0.2851,0.2852,0,0,0,0,0,0,0,0.2833,0.2832,0.2833,0.2831,0.2831,0.2836,0.2835,0.2845,0.2836,0.2828,0.2827,0.2831,0.2844,0.2844,0.2845,0.286,0.285,0.2851,0.2852,0.2852,0.2961,0.2963,0,0,0,0,0,0,0.2835,0.2832,0.2833,0.2833,0.2833,0.2836,0.2835,0.2832,0.2836,0.2837,0.2831,0.2831,0.2842,0.2844,0.2845,0.2926,0.2851,0.2852,0.2853,0.2958,0.2961,0.2964,0,0,0,0,0,0,0.2835,0.2834,0.2832,0.2835,0.2835,0.2836,0.2832,0.2832,0.2843,0.2839,0.2839,0.2844,0.2842,0.2844,0.2878,0.2924,0.2853,0.2853,0.2956,0.2959,0.2962,0.3043,0,0,0,0,0,0,0.2834,0.2834,0.284,0.2835,0.2835,0.2859,0.2833,0.2832,0.2846,0.2845,0.285,0.2851,0.2842,0.2877,0.2879,0.2924,0.2854,0.2953,0.2957,0.2961,0.3037,0.3048,0.3058,0,0,0,0,0,0.2834,0.2842,0.284,0.2841,0.284,0.2861,0.2862,0.2861,0.2847,0.2866,0.2869,0.2851,0.2906,0.2879,0.2881,0.2927,0.2951,0.2956,0.2961,0.3032,0.3046,0.3058,0,0,0,0,0,0,0.2844,0.2842,0.284,0.2846,0.2864,0.286,0.2875,0.2871,0.2886,0.2885,0.2874,0.2876,0.2927,0.2917,0.2887,0.2974,0.2928,0.2934,0.2982,0.2995,0.3005,0.3029,0.2855,0,0,0,0,0,0.285,0.2856,0.2861,0.2871,0.2879,0.2879,0.2888,0.2889,0.2898,0.2903,0.2909,0.2921,0.2949,0.2962,0.298,0.3021,0.3043,0.3055,0.3066,0.3075,0.3098,0.3174,0.3194,0.2981,0.2981,0.2981,0,0,0.2855,0.2857,0.286,0.2875,0.2882,0.2903,0.2884,0.2906,0.2931,0.2904,0.2944,0.2958,0.2969,0.302,0.3042,0.3017,0.3148,0.3081,0.3089,0.3107,0.3182,0.3203,0.3221,0.2984,0.2984,0.2983,0,0,0.2872,0.2875,0.2887,0.2906,0.2927,0.2931,0.2942,0.2955,0.2971,0.301,0.3007,0.305,0.3076,0.3104,0.3117,0.3197,0.3202,0.3207,0.3278,0.3352,0.337,0.3387,0.3442,0.3463,0.321,0.321,0.321,0,0.2882,0.2889,0.2898,0.2921,0.294,0.2946,0.2971,0.2994,0.302,0.3052,0.3036,0.3119,0.3119,0.3201,0.3233,0.3222,0.3264,0.3224,0.3367,0.3383,0.3399,0.3452,0.3474,0.3215,0.3214,0.3214,0.3213,0,0.2905,0.2919,0.2932,0.2959,0.299,0.3011,0.3044,0.3084,0.31,0.3125,0.3213,0.323,0.3288,0.3296,0.3289,0.3407,0.3401,0.3371,0.3333,0.3425,0.3475,0.3496,0.3221,0.3219,0.3218,0.3217,0,0,0.2892,0.2936,0.294,0.2961,0.3007,0.3032,0.3097,0.3158,0.3205,0.3257,0.3338,0.3396,0.3424,0.3444,0.3453,0.3514,0.3648,0.3501,0.3503,0.3555,0.3822,0.3683,0.3692,0.3654,0.3658,0.3661,0.3813,0,0.2901,0.2944,0.2969,0.3018,0.3041,0.3088,0.3151,0.3219,0.3268,0.3353,0.3416,0.3492,0.3476,0.352,0.3588,0.3647,0.371,0.361,0.3727,0.3731,0.3594,0.3714,0.3389,0.3486,0.3833,0.3837,0.3839,0,0.2899,0.2933,0.2974,0.305,0.3067,0.3107,0.321,0.3269,0.3394,0.3449,0.3553,0.3599,0.3736,0.3684,0.3856,0.3804,0.3831,0.3853,0.3859,0.3718,0.3632,0.3451,0.3511,0.3875,0.3872,0.3869,0.3867,0,0.287,0.2931,0.2962,0.2984,0.3073,0.3122,0.3186,0.3299,0.3376,0.3525,0.3611,0.3746,0.3847,0.3927,0.3986,0.395,0.4145,0.4089,0.3985,0.3975,0.3714,0.3673,0.4196,0.4196,0.4196,0.4195,0.4195,0,0.285,0.2878,0.295,0.297,0.3037,0.3115,0.3203,0.3296,0.3441,0.3543,0.3669,0.3779,0.392,0.4032,0.4056,0.4103,0.4211,0.4034,0.402,0.373,0.3691,0.403,0.4009,0.4201,0.42,0.4199,0.4198,0,0.2795,0.284,0.288,0.2977,0.3017,0.3067,0.3218,0.3281,0.3443,0.359,0.366,0.3869,0.401,0.4099,0.4229,0.4187,0.423,0.4197,0.384,0.3779,0.3995,0.3977,0.4132,0.4129,0.4126,0.4124,0.4122,0,0.2768,0.2776,0.2869,0.2905,0.2945,0.3037,0.3101,0.3266,0.3348,0.362,0.3694,0.3895,0.3976,0.4129,0.4091,0.4111,0.4188,0.3806,0.3658,0.4027,0.3997,0.3983,0.3968,0.3356,0.3348,0.3341,0.3336,0,0.2716,0.2739,0.2782,0.2857,0.2916,0.2967,0.3086,0.3148,0.3343,0.3467,0.3619,0.3708,0.3862,0.3736,0.3776,0.3737,0.3778,0.3669,0.4189,0.3402,0.3301,0.3269,0.328,0.3277,0.3283,0.3287,0.329,0.3293,0.2681,0.2686,0.2746,0.2794,0.2858,0.2874,0.2873,0.2989,0.3077,0.3208,0.3392,0.3418,0.3481,0.3367,0.3269,0.32,0.3454,0.3293,0.3311,0.3337,0.32,0.3097,0.301,0.3014,0.3018,0.3021,0.3024,0,0.2623,0.2647,0.2688,0.2717,0.2705,0.2799,0.2835,0.2786,0.2795,0.2942,0.3004,0.279,0.273,0.2804,0.2601,0.2593,0.2554,0.2487,0.2407,0.2469,0.2523,0.2341,0.1925,0.1922,0.1918,0.1915,0,0,0.2604,0.2601,0.2594,0.2541,0.2575,0.2526,0.2505,0.2434,0.2465,0.2415,0.2411,0.2614,0.2729,0.2296,0.2232,0.2043,0.2238,0.1961,0.2848,0.2817,0.2866,0.3,0.279,0,0,0,0,0]},{"header":{"parameterUnit":"m.s-1","parameterCategory":2,"la1":30.2991,"la2":30.254,"lo1":-89.0895,"lo2":-89.0444,"dy":0.0017,"dx":0.0017,"nx":28,"ny":28,"refTime":"2024-08-18T03:00:00:Z","depth":"2","parameterNumber":3,"parameterNumberName":"V-component_of_CURRENTS"},"data":[0,0,0,0,0,0,0,0,0,0,0,0,0,0,0,0,0,0,0,0,0,0,0,0,0,0,0,0,0,0,0,0,0,0,0,0,0,0,0,0,0,0,0,0,0,0,0,0,0,0,0,0,0,0,0,0,0,0,0.0055,0.0054,0,0.0012,0.0011,0.0011,-0.0018,-0.0018,-0.0018,-0.0019,-0.0056,-0.0057,-0.0058,0,0,0,0,0,0,0,0,0,0,0,0,0,0.0086,0.0086,0.0055,0.0054,0.0054,0.0012,0.0011,0.0011,-0.0018,-0.0018,-0.0018,-0.0019,-0.0056,-0.0057,-0.0058,0,0,0,0,0,0,0,0,0,0,0,0,0,0.0062,0.0086,0.0055,0.0034,0.0032,0.0012,0.0011,0.001,-0.0018,-0.0018,-0.0018,-0.0019,-0.0056,-0.0057,-0.0058,-0.0058,0,0,-0.0062,-0.0062,0,0,0,0,0,0,0,0,0.0063,0.0061,0.0038,0.0035,0.0033,0.0001,0.0008,-0.0012,-0.0018,0.0002,-0.0019,-0.0019,-0.0037,-0.004,-0.0046,-0.0059,-0.0061,-0.0062,-0.0062,-0.0063,-0.0063,0,0,0,0,0,0,0,0.0065,0.0062,0.0039,0.0037,0.0034,0.0017,0.0014,0.0004,-0.0014,0.0,-0.0002,-0.0008,-0.0038,-0.0045,-0.0047,-0.0062,-0.0062,-0.0063,-0.0063,-0.0064,-0.0067,-0.0067,0,0,0,0,0,0,0.007,0.0064,0.004,0.0037,0.0046,0.0017,0.0013,0.0012,-0.0014,-0.0019,-0.0008,-0.0009,-0.0043,-0.0046,-0.0048,-0.0028,-0.0063,-0.0064,-0.0065,-0.0068,-0.0067,-0.0066,0,0,0,0,0,0,0.0071,0.0069,0.0042,0.0049,0.0044,0.0017,0.0016,0.0012,0.0006,-0.002,-0.0025,-0.0009,-0.0043,-0.0047,-0.0048,-0.003,-0.0065,-0.0066,-0.0069,-0.0068,-0.0067,-0.0,0,0,0,0,0,0,0.0073,0.007,0.0073,0.0049,0.0044,0.004,0.0016,0.0011,0.0002,-0.0,-0.0023,-0.0027,-0.0044,-0.0046,-0.0049,-0.0033,-0.0066,-0.0069,-0.0068,-0.0067,-0.0003,0.0003,0.0008,0,0,0,0,0,0.0074,0.0082,0.0073,0.007,0.0048,0.004,0.0036,0.0016,0.0003,0.0008,-0.0008,-0.0026,-0.0042,-0.0047,-0.005,-0.0033,-0.007,-0.0068,-0.0067,-0.0006,0.0002,0.0008,0,0,0,0,0,0,0.0093,0.0079,0.0069,0.0071,0.006,0.0035,0.0036,0.002,0.0011,0.001,-0.0017,-0.0022,-0.0018,-0.0035,-0.004,-0.0032,-0.0059,-0.0059,-0.0011,-0.0005,0.0001,0.0019,-0.0067,0,0,0,0,0,0.01,0.0105,0.0085,0.0088,0.0085,0.0061,0.0055,0.0043,0.0029,0.0024,0.0005,-0.001,-0.0015,-0.0018,-0.0029,-0.0022,-0.0042,-0.0015,-0.0009,-0.0004,0.0007,-0.0009,-0.0003,-0.0062,-0.0062,-0.0062,0,0,0.0105,0.01,0.0101,0.0093,0.0083,0.0094,0.0057,0.0055,0.0067,0.0022,0.0032,0.0008,-0.001,-0.0002,-0.0002,-0.0013,0.0001,-0.0003,0.0002,0.0011,-0.0007,-0.0001,0.0004,-0.0061,-0.0061,-0.0061,0,0,0.0128,0.0118,0.0134,0.0133,0.0125,0.0116,0.0118,0.0098,0.0093,0.0097,0.0069,0.0057,0.0046,0.0037,0.0032,0.0061,0.0029,0.0055,0.0102,0.0087,0.0092,0.0096,0.0076,0.0078,0.0061,0.0061,0.0061,0,0.0136,0.0156,0.0136,0.0156,0.0165,0.0132,0.0157,0.015,0.0131,0.0136,0.0112,0.0094,0.0068,0.0086,0.0092,0.0075,0.0059,0.008,0.0095,0.0099,0.0102,0.0081,0.0082,0.0064,0.0064,0.0063,0.0063,0,0.0174,0.0193,0.0204,0.0224,0.0229,0.0245,0.0236,0.0239,0.0225,0.0214,0.0218,0.0179,0.0172,0.0156,0.0134,0.0147,0.0126,0.0102,0.0081,0.0112,0.0087,0.0087,0.0069,0.0068,0.0067,0.0066,0,0,0.0196,0.0226,0.0233,0.0263,0.0271,0.0286,0.0308,0.0324,0.0352,0.0316,0.0348,0.031,0.0279,0.027,0.0233,0.0212,0.0207,0.0171,0.0169,0.0157,0.0173,0.013,0.0125,0.0188,0.0188,0.0189,0.0147,0,0.0238,0.0297,0.0298,0.0361,0.0395,0.0385,0.0417,0.0424,0.042,0.044,0.0393,0.0406,0.0328,0.0332,0.0296,0.0242,0.0211,0.0221,0.0141,0.0138,0.01,0.0125,0.0148,0.0111,0.0147,0.0147,0.0147,0,0.0285,0.0323,0.039,0.0452,0.0466,0.0495,0.055,0.0577,0.0586,0.0584,0.0569,0.0531,0.0505,0.0433,0.0343,0.0355,0.0269,0.021,0.0207,0.0145,0.0095,0.0085,0.0109,0.0146,0.0146,0.0146,0.0146,0,0.0329,0.0394,0.0457,0.0477,0.0532,0.0564,0.0595,0.0618,0.0673,0.0683,0.0723,0.0656,0.0658,0.0542,0.0399,0.0381,0.0293,0.0254,0.0128,0.0124,0.0118,0.0112,0.0181,0.0181,0.0181,0.0181,0.0181,0,0.0385,0.0437,0.0486,0.0522,0.0619,0.0628,0.0725,0.0743,0.0797,0.0891,0.0808,0.0861,0.0686,0.0608,0.0452,0.0295,0.0329,0.0145,0.0115,0.014,0.0137,0.0146,0.0142,0.018,0.018,0.018,0.0181,0,0.0431,0.0457,0.0539,0.0609,0.0644,0.0715,0.0828,0.0901,0.0935,0.1057,0.1076,0.1031,0.0931,0.0731,0.0551,0.0385,0.0224,0.015,0.0185,0.0159,0.0052,0.0053,0.0026,0.0024,0.0022,0.0021,0.002,0,0.0458,0.0505,0.061,0.0679,0.0717,0.0824,0.091,0.0971,0.1069,0.1175,0.1254,0.1184,0.1154,0.0852,0.055,0.0265,0.0219,0.0087,0.0046,0.0066,0.0039,0.0041,0.0044,0.0065,0.0065,0.0064,0.0064,0,0.0522,0.0555,0.0628,0.0767,0.0869,0.1005,0.1132,0.1228,0.1331,0.1424,0.1522,0.1499,0.1218,0.0929,0.0521,0.0324,0.0131,0.0067,0.0098,0.0094,0.0098,0.0073,0.0075,0.0059,0.006,0.006,0.006,0.0061,0.0573,0.064,0.0738,0.0873,0.1004,0.1177,0.1292,0.143,0.1595,0.1727,0.1694,0.1649,0.1328,0.08,0.0462,0.0095,0.0115,-0.0022,-0.0018,-0.0014,-0.0009,-0.0009,-0.0066,-0.0066,-0.0067,-0.0067,-0.0067,0,0.065,0.0726,0.0844,0.1012,0.116,0.1223,0.1444,0.1555,0.1743,0.1818,0.1856,0.1538,0.1219,0.0846,0.0311,-0.0006,-0.0025,-0.0116,-0.0061,-0.0054,-0.0049,-0.0044,-0.0112,-0.0113,-0.0114,-0.0115,0,0,0.0697,0.0817,0.0873,0.1117,0.1241,0.1455,0.1584,0.1733,0.1829,0.1882,0.1836,0.1741,0.1318,0.092,0.0497,0.0194,0.0138,0.0126,0.0196,0.0318,0.0327,0.0038,0.0057,0,0,0,0,0]}],[{"header":{"parameterUnit":"m.s-1","parameterCategory":2,"la1":30.2991,"la2":30.254,"lo1":-89.0895,"lo2":-89.0444,"dy":0.0017,"dx":0.0017,"nx":28,"ny":28,"refTime":"2024-08-18T03:00:00:Z","depth":"4","parameterNumber":2,"parameterNumberName":"U-component_of_CURRENTS"},"data":[0,0,0,0,0,0,0,0,0,0,0,0,0,0,0,0,0,0,0,0,0,0,0,0,0,0,0,0,0,0,0,0,0,0,0,0,0,0,0,0,0,0,0,0,0,0,0,0,0,0,0,0,0,0,0,0,0,0,0.1816,0.1816,0,0.1864,0.1864,0.1865,0.1916,0.1917,0.1918,0.1919,0.1969,0.197,0.197,0,0,0,0,0,0,0,0,0,0,0,0,0,0.1751,0.1752,0.1816,0.1816,0.1817,0.1864,0.1865,0.1865,0.1916,0.1917,0.1918,0.1919,0.1969,0.197,0.197,0,0,0,0,0,0,0,0,0,0,0,0,0,0.1785,0.1752,0.1815,0.185,0.1854,0.1864,0.1865,0.1865,0.1915,0.1917,0.1918,0.192,0.1969,0.197,0.197,0.1946,0,0,0.1972,0.1973,0,0,0,0,0,0,0,0,0.1783,0.1787,0.1844,0.1848,0.1852,0.1888,0.1861,0.1893,0.1915,0.1889,0.1919,0.192,0.1943,0.1946,0.1948,0.1948,0.1951,0.1973,0.1973,0.1973,0.1973,0,0,0,0,0,0,0,0.178,0.1785,0.1832,0.1845,0.185,0.1858,0.1864,0.1867,0.1905,0.1892,0.1896,0.1905,0.1945,0.1947,0.195,0.1951,0.1973,0.1973,0.1974,0.1974,0.2072,0.2074,0,0,0,0,0,0,0.1779,0.1783,0.1831,0.1834,0.1823,0.1858,0.1865,0.1873,0.1905,0.1913,0.1904,0.1907,0.1945,0.1949,0.1952,0.2033,0.1973,0.1974,0.1974,0.2069,0.2072,0.2074,0,0,0,0,0,0,0.1778,0.1783,0.1829,0.1812,0.1819,0.1858,0.1866,0.1873,0.1915,0.1915,0.1922,0.1944,0.1946,0.1951,0.1993,0.2032,0.1974,0.1975,0.2067,0.207,0.2073,0.2127,0,0,0,0,0,0,0.1775,0.1782,0.1806,0.1811,0.182,0.1864,0.1865,0.1873,0.1917,0.1923,0.1951,0.1955,0.1948,0.1992,0.1994,0.2031,0.1975,0.2064,0.2068,0.2072,0.2122,0.2132,0.2139,0,0,0,0,0,0.1773,0.1793,0.1807,0.1814,0.1845,0.1866,0.1872,0.1902,0.1918,0.1944,0.1966,0.1956,0.202,0.1994,0.1996,0.2034,0.2062,0.2067,0.2072,0.2118,0.213,0.2139,0,0,0,0,0,0,0.1778,0.18,0.1816,0.1843,0.1869,0.1877,0.1908,0.1922,0.1958,0.1976,0.1973,0.1979,0.2036,0.2029,0.2,0.2078,0.2043,0.2049,0.2079,0.2089,0.2097,0.2098,0.1976,0,0,0,0,0,0.1789,0.1815,0.1833,0.1862,0.1877,0.1899,0.192,0.1939,0.1962,0.1981,0.2,0.2025,0.2049,0.2065,0.2085,0.2115,0.2126,0.2147,0.2155,0.2163,0.2167,0.2219,0.2232,0.209,0.209,0.209,0,0,0.18,0.1818,0.1834,0.1866,0.189,0.1912,0.1916,0.1958,0.1985,0.1979,0.2036,0.2058,0.2066,0.2111,0.2135,0.2113,0.2212,0.2169,0.2174,0.2175,0.2225,0.2239,0.2251,0.2094,0.2093,0.2093,0,0,0.1816,0.1852,0.1873,0.1897,0.194,0.1952,0.1972,0.2004,0.2034,0.2081,0.209,0.2135,0.217,0.2181,0.2189,0.2255,0.2259,0.2276,0.2313,0.2363,0.2375,0.2385,0.2426,0.244,0.2275,0.2275,0.2275,0,0.1832,0.1854,0.1885,0.1908,0.1932,0.1973,0.1995,0.2026,0.2072,0.2097,0.2115,0.219,0.2199,0.2241,0.2272,0.2272,0.2306,0.2268,0.2373,0.2383,0.2393,0.2433,0.2447,0.2278,0.2278,0.2278,0.2277,0,0.1846,0.1881,0.1899,0.194,0.1971,0.2003,0.2041,0.2087,0.2132,0.216,0.2237,0.2262,0.2308,0.2323,0.2317,0.2393,0.2397,0.238,0.2342,0.241,0.2448,0.2462,0.2283,0.2282,0.2281,0.228,0,0,0.1827,0.1894,0.1903,0.1924,0.199,0.2006,0.2067,0.2117,0.216,0.223,0.2289,0.2343,0.2382,0.2394,0.2407,0.2447,0.2544,0.2453,0.2454,0.2485,0.2669,0.2484,0.2481,0.2557,0.256,0.2562,0.2671,0,0.1829,0.187,0.1907,0.195,0.1971,0.2028,0.2074,0.2134,0.2199,0.2272,0.2328,0.24,0.2402,0.2446,0.2491,0.2535,0.2583,0.2516,0.2606,0.2608,0.2427,0.2491,0.257,0.2681,0.2684,0.2687,0.2688,0,0.1817,0.1847,0.1889,0.1947,0.1962,0.2003,0.2083,0.2134,0.2242,0.2298,0.239,0.245,0.2542,0.2533,0.2651,0.2619,0.2658,0.268,0.2685,0.2499,0.2447,0.2598,0.2713,0.2711,0.2709,0.2707,0.2706,0,0.1761,0.1826,0.1859,0.1881,0.1958,0.1997,0.2052,0.2151,0.221,0.2341,0.241,0.2517,0.2607,0.2669,0.2739,0.2718,0.2856,0.2824,0.2691,0.2679,0.2789,0.2776,0.2906,0.2906,0.2906,0.2906,0.2905,0,0.1719,0.1746,0.1843,0.1855,0.1902,0.1976,0.2049,0.2116,0.2243,0.2312,0.2438,0.2512,0.2655,0.2748,0.2778,0.2777,0.2896,0.2706,0.2694,0.2811,0.28,0.2799,0.2785,0.291,0.2909,0.2908,0.2907,0,0.1638,0.1707,0.1746,0.184,0.1877,0.1917,0.2051,0.2088,0.2233,0.2335,0.2392,0.2566,0.2676,0.2778,0.2892,0.2816,0.283,0.2801,0.2936,0.2929,0.2613,0.2601,0.2654,0.2648,0.2643,0.2639,0.2636,0,0.1596,0.1611,0.1724,0.1748,0.1797,0.188,0.1919,0.2068,0.2116,0.2335,0.236,0.2551,0.2641,0.2664,0.277,0.2808,0.2776,0.2758,0.266,0.2604,0.2588,0.2584,0.2578,0.2628,0.2627,0.2626,0.2625,0,0.1503,0.1564,0.1596,0.1658,0.1708,0.1755,0.184,0.1875,0.2037,0.2194,0.2287,0.2361,0.2483,0.2564,0.2621,0.2635,0.2745,0.2707,0.2716,0.2624,0.2574,0.2562,0.2562,0.2608,0.261,0.2612,0.2613,0,0.144,0.1448,0.1506,0.1541,0.1597,0.1602,0.1673,0.1735,0.1823,0.2062,0.2094,0.2285,0.2465,0.2477,0.2521,0.2525,0.2481,0.2378,0.2403,0.2423,0.2291,0.219,0.2102,0,0,0,0,0,0.1365,0.1354,0.1375,0.14,0.1444,0.149,0.1589,0.1664,0.1841,0.1846,0.1972,0.207,0.2162,0.2267,0.2227,0.2404,0.2479,0.2342,0.2369,0.2516,0.2535,0.2399,0,0,0,0,0,0,0.131,0.1329,0.133,0.1268,0.1266,0.1303,0.1372,0.1493,0.1515,0.1713,0.1784,0.1931,0.2061,0.2176,0.2189,0.2215,0.2182,0.2464,0.2458,0.2505,0.2522,0.2538,0.2404,0,0,0,0,0]},{"header":{"parameterUnit":"m.s-1","parameterCategory":2,"la1":30.2991,"la2":30.254,"lo1":-89.0895,"lo2":-89.0444,"dy":0.0017,"dx":0.0017,"nx":28,"ny":28,"refTime":"2024-08-18T03:00:00:Z","depth":"4","parameterNumber":3,"parameterNumberName":"V-component_of_CURRENTS"},"data":[0,0,0,0,0,0,0,0,0,0,0,0,0,0,0,0,0,0,0,0,0,0,0,0,0,0,0,0,0,0,0,0,0,0,0,0,0,0,0,0,0,0,0,0,0,0,0,0,0,0,0,0,0,0,0,0,0,0,0.0065,0.0065,0,0.0038,0.0037,0.0037,0.0019,0.0019,0.0018,0.0018,-0.0004,-0.0004,-0.0004,0,0,0,0,0,0,0,0,0,0,0,0,0,0.0084,0.0084,0.0065,0.0065,0.0064,0.0038,0.0037,0.0037,0.0019,0.0019,0.0018,0.0018,-0.0004,-0.0004,-0.0004,0,0,0,0,0,0,0,0,0,0,0,0,0,0.0069,0.0084,0.0065,0.0051,0.0049,0.0038,0.0037,0.0037,0.0019,0.0018,0.0018,0.0018,-0.0003,-0.0004,-0.0005,-0.0001,0,0,-0.0006,-0.0007,0,0,0,0,0,0,0,0,0.007,0.0068,0.0054,0.0052,0.005,0.003,0.0036,0.0024,0.0019,0.0031,0.0018,0.0018,0.0008,0.0006,0.0003,-0.0003,-0.0003,-0.0006,-0.0007,-0.0007,-0.0007,0,0,0,0,0,0,0,0.0071,0.0069,0.0055,0.0053,0.0051,0.004,0.0038,0.0034,0.0023,0.003,0.0029,0.0024,0.0007,0.0004,0.0003,-0.0004,-0.0006,-0.0007,-0.0007,-0.0007,-0.0003,-0.0002,0,0,0,0,0,0,0.0074,0.007,0.0056,0.0054,0.0058,0.004,0.0038,0.0038,0.0023,0.002,0.0025,0.0023,0.0005,0.0003,0.0002,0.0022,-0.0007,-0.0007,-0.0008,-0.0003,-0.0003,-0.0002,0,0,0,0,0,0,0.0074,0.0073,0.0057,0.0061,0.0058,0.004,0.004,0.0037,0.0034,0.0018,0.0015,0.0024,0.0005,0.0003,0.0004,0.002,-0.0008,-0.0008,-0.0004,-0.0003,-0.0002,0.005,0,0,0,0,0,0,0.0075,0.0073,0.0076,0.0061,0.0058,0.0057,0.0041,0.0037,0.0031,0.003,0.0017,0.0014,0.0004,0.0005,0.0004,0.0019,-0.0009,-0.0004,-0.0003,-0.0003,0.0048,0.0053,0.0057,0,0,0,0,0,0.0076,0.0082,0.0077,0.0075,0.0062,0.0057,0.0055,0.0041,0.0032,0.0036,0.0027,0.0015,0.001,0.0006,0.0004,0.0018,-0.0005,-0.0004,-0.0003,0.0046,0.0052,0.0057,0,0,0,0,0,0,0.0089,0.008,0.0074,0.0077,0.007,0.0054,0.0055,0.0044,0.004,0.004,0.0022,0.002,0.0025,0.0014,0.001,0.0021,-0.0,0.0,0.0037,0.0042,0.0047,0.0055,-0.0009,0,0,0,0,0,0.0095,0.01,0.0086,0.009,0.0088,0.0072,0.0068,0.006,0.0052,0.0049,0.0039,0.003,0.0028,0.0029,0.0022,0.0032,0.0004,0.0038,0.0043,0.0047,0.0051,0.0021,0.0023,0.0001,0.0001,0.0001,0,0,0.0099,0.0096,0.0097,0.0093,0.0087,0.0097,0.007,0.0069,0.008,0.0049,0.006,0.0043,0.0032,0.0042,0.0044,0.0036,0.0037,0.0048,0.0052,0.0054,0.0022,0.0024,0.0026,0.0002,0.0002,0.0002,0,0,0.0116,0.0111,0.0123,0.0123,0.0119,0.0114,0.0115,0.0102,0.01,0.0107,0.0087,0.008,0.0077,0.0072,0.007,0.0093,0.0058,0.0091,0.0126,0.0096,0.0098,0.0099,0.0062,0.0059,0.0098,0.0098,0.0098,0,0.0123,0.0139,0.0125,0.0141,0.0149,0.0126,0.0146,0.0142,0.0132,0.0136,0.012,0.0109,0.0094,0.0108,0.0114,0.0104,0.0077,0.0109,0.0102,0.0103,0.0103,0.0064,0.0061,0.0101,0.01,0.01,0.01,0,0.0151,0.0167,0.0176,0.0193,0.0199,0.0212,0.0208,0.0212,0.0204,0.0197,0.02,0.0173,0.0168,0.016,0.0146,0.0146,0.0122,0.0107,0.009,0.0108,0.0066,0.0062,0.0104,0.0103,0.0103,0.0102,0,0,0.0164,0.0191,0.0197,0.0222,0.0232,0.0245,0.0264,0.0279,0.0299,0.0275,0.0294,0.0273,0.0246,0.0241,0.0215,0.0188,0.0159,0.0153,0.015,0.0118,0.0086,0.0069,0.0061,0.0142,0.0141,0.0141,0.0055,0,0.0195,0.0241,0.0246,0.0298,0.0324,0.0321,0.0349,0.0358,0.0354,0.0364,0.0327,0.0332,0.0282,0.0282,0.0246,0.0183,0.0149,0.0183,0.0071,0.0068,0.0052,0.0057,0.014,0.0051,0.005,0.0049,0.0049,0,0.0227,0.0258,0.0314,0.0368,0.038,0.0408,0.0452,0.0476,0.0477,0.0474,0.0455,0.0418,0.0381,0.0335,0.0228,0.0251,0.0174,0.0116,0.0111,0.0075,0.0042,0.0029,0.0039,0.004,0.0041,0.0041,0.0042,0,0.0254,0.031,0.0362,0.0379,0.043,0.046,0.049,0.0509,0.0549,0.0542,0.0556,0.0493,0.0474,0.0366,0.0232,0.0232,0.0103,0.0089,-0.0002,-0.0004,0.0013,0.0013,0.0011,0.0011,0.0011,0.0011,0.0012,0,0.029,0.0333,0.0384,0.0412,0.0497,0.051,0.0591,0.0606,0.0638,0.0689,0.0619,0.0625,0.048,0.0384,0.0254,0.0107,0.0114,0.0003,-0.0025,0.0036,0.004,0.0009,0.001,0.0008,0.0009,0.0009,0.001,0,0.0315,0.0342,0.0412,0.0478,0.0513,0.0575,0.0672,0.0723,0.074,0.0798,0.08,0.0728,0.0603,0.0438,0.0262,0.0148,0.0001,-0.0055,0.0016,-0.0007,-0.0092,-0.0088,-0.0153,-0.0155,-0.0156,-0.0156,-0.0157,0,0.033,0.0369,0.0467,0.0524,0.0561,0.0656,0.0727,0.0778,0.0833,0.0858,0.0885,0.0786,0.0712,0.0452,0.0268,0.0014,-0.0023,-0.0109,-0.0097,-0.0087,-0.0108,-0.0102,-0.0096,-0.0159,-0.0159,-0.0159,-0.016,0,0.0367,0.0402,0.0462,0.0579,0.0665,0.0777,0.087,0.0917,0.0972,0.098,0.0958,0.0822,0.0681,0.0466,0.0262,0.008,-0.0059,-0.0121,-0.012,-0.0108,-0.0095,-0.0113,-0.0106,-0.0163,-0.0163,-0.0163,-0.0162,0,0.04,0.0451,0.0531,0.0637,0.075,0.0861,0.0911,0.0972,0.103,0.1037,0.1023,0.0864,0.0772,0.05,0.0311,0.0127,0.0085,0.0019,0.0013,0.0014,0.0082,0.0125,0.0102,0,0,0,0,0,0.0434,0.0493,0.0585,0.0702,0.0808,0.0882,0.0996,0.1031,0.1069,0.1065,0.105,0.0915,0.0648,0.0533,0.035,0.0283,0.0044,0.0059,-0.0037,-0.0184,-0.018,-0.0131,0,0,0,0,0,0,0.0459,0.0544,0.0587,0.0734,0.0818,0.0951,0.1027,0.1056,0.1055,0.1054,0.092,0.0852,0.0597,0.0751,0.034,0.0285,0.0194,-0.0064,-0.0069,-0.0186,-0.0182,-0.0179,-0.0127,0,0,0,0,0]}]]